Location: T�bingen+AIT
(48.5342°N, 9.0700°E)
Time: 15:09:35
(UTC+01:00)

FALCON 9 R/B - Pass Details

Date: 14 September 2017
Orbit: 296 x 10242 km, 34.5° (Epoch: 17 November)

Event Time Altitude Azimuth Distance (km) Brightness Sun altitude
Rises 20:35:39 0° 207° (SSW) 2,453 4.8 -10.1°
Reaches altitude 10° 20:37:59 10° 180° (S) 2,012 4.0 -10.5°
Maximum altitude 20:40:40 15° 142° (SE) 2,236 3.9 -10.9°
Enters shadow 20:43:05 13° 120° (ESE) 2,928 4.4 -11.3°
